Regional Weather Roundup
Issued by NWS

Home | Current Version | Previous Version | Text Only | Print | Product List | Glossary Off
Versions: 1 2 3 4 5 6 7 8 9 10 11 12 13 14 15 16 17 18 19 20 21 22 23 24 25 26 27 28 29 30 31 32 33 34 35 36 37 38 39 40 41 42 43 44 45 46 47 48 49 50

000
ASUS43 KBIS 240002
RWRND

NORTH DAKOTA REGIONAL WEATHER ROUNDUP
NATIONAL WEATHER SERVICE BISMARCK ND
700 PM CDT SAT JUL 23 2016

NOTE: "FAIR" INDICATES FEW OR NO CLOUDS BELOW 12,000 FEET WITH NO
SIGNIFICANT WEATHER AND/OR OBSTRUCTIONS TO VISIBILITY.


NDZ001>003-009>011-017-240100-
NORTHWEST NORTH DAKOTA

CITY           SKY/WX    TMP DP  RH WIND       PRES   REMARKS
WILLISTON      SUNNY     78  53  41 NW22G30   29.87R
6HR MIN TEMP:  78; 6HR MAX TEMP:  83;

MINOT          SUNNY     83  54  36 W16G29    29.77R
MINOT AFB      SUNNY     79  56  44 W14G28    29.76R
$$

NDZ018>021-031>035-040>046-240100-
SOUTHWEST NORTH DAKOTA

CITY           SKY/WX    TMP DP  RH WIND       PRES   REMARKS
BISMARCK       SUNNY     84  51  31 W14G22    29.81S
6HR MIN TEMP:  76; 6HR MAX TEMP:  85;

DICKINSON      SUNNY     79  44  28 W17       29.87S
GARRISON         N/A     80  55  42 W12       29.80S
6HR MIN TEMP:  72; 6HR MAX TEMP:  81;

HETTINGER ARPT SUNNY     85  41  21 NW22G31   29.91S
$$

NDZ004>008-012>016-024-026-027-054-240100-
NORTHEAST NORTH DAKOTA

CITY           SKY/WX    TMP DP  RH WIND       PRES   REMARKS
GRAND FORKS    PTSUNNY   71  68  90 NW5       29.71F
GRND FRKS AFB  CLOUDY    69  68  94 NW3       29.72F
DEVILS LAKE    CLOUDY    74  70  87 W6        29.75F
$$

NDZ022-023-025-028>030-036>039-047>053-240100-
SOUTHEAST NORTH DAKOTA

CITY           SKY/WX    TMP DP  RH WIND       PRES   REMARKS
FARGO          CLOUDY    82  72  71 S9        29.69S
6HR MIN TEMP:  73; 6HR MAX TEMP:  84; 6HR PCP: TRACE;

JAMESTOWN      CLOUDY    77  69  76 NW12      29.76R
$$





USA.gov is the U.S. government's official web portal to all federal, state and local government web resources and services.